Weather History for Lone Rock, WI

Change the Weather History Date:

Friday, April 26, 2013

  Actual Average Record
Temperature  
Mean Temperature 54 °F -  
Max Temperature 73 °F 61 °F 79 °F (2001)
Min Temperature 35 °F 38 °F 27 °F (2006)
Degree Days  
Heating Degree Days 12    
Growing Degree Days 4 (Base 50)    
Moisture  
Dew Point 37 °F    
Average Humidity 49    
Maximum Humidity 78    
Minimum Humidity 33    
Precipitation  
Precipitation 0.00 in - - ()
Sea Level Pressure  
Sea Level Pressure 30.17 in    
Wind  
Wind Speed 10 mph (South)    
Max Wind Speed 21 mph    
Max Gust Speed 32 mph    
Visibility 10 miles    
Events      
Averages and records for this station are not official NWS values.
T = Trace of Precipitation, MM = Missing Value Source: NWS Daily Summary

Daily Weather History Graph

Daily Weather History Graph

Search for Another Location

Airport:

Trip Planner

Search our weather history database for the weather conditions in past years. The results will help you decide how hot, cold, wet, or windy it might be!

Date:

Astronomy

Apr. 26, 2013 Rise Set
Actual Time 6:00 AM CDT 7:56 PM CDT
Civil Twilight 5:30 AM CDT 8:27 PM CDT
Nautical Twilight 4:52 AM CDT 9:05 PM CDT
Astronomical Twilight 4:12 AM CDT 9:46 PM CDT
Moon 9:21 PM CDT (4/26) 6:27 AM CDT (4/26)
Length of Visible Light 14h 57m
Length of Day
13h 55m
Full, 99% of the Moon is Illuminated
Apr 26
Full
May 2
Last Quarter
May 9
New
May 17
First Quarter
May 24
Full

Hourly Weather History & Observations

Time (CDT) Temp. Windchill Dew Point Humidity Pressure Visibility Wind Dir Wind Speed Gust Speed Precip Events Conditions
12:56 AM 35.1 °F 32.2 °F 28.9 °F 78% 30.25 in 10.0 mi East 3.5 mph - N/A   Clear
1:56 AM 36.0 °F 30.3 °F 28.0 °F 73% 30.23 in 10.0 mi East 6.9 mph - N/A   Clear
2:56 AM 37.9 °F 32.1 °F 27.0 °F 65% 30.23 in 10.0 mi East 8.1 mph - N/A   Partly Cloudy
3:56 AM 39.0 °F 32.8 °F 26.1 °F 60% 30.22 in 10.0 mi East 9.2 mph - N/A   Partly Cloudy
4:56 AM 42.1 °F 37.7 °F 28.9 °F 60% 30.21 in 10.0 mi East 6.9 mph - N/A   Scattered Clouds
5:56 AM 45.0 °F 41.2 °F 30.0 °F 56% 30.21 in 10.0 mi East 6.9 mph - N/A   Scattered Clouds
6:56 AM 50.0 °F - 30.0 °F 46% 30.19 in 10.0 mi South 12.7 mph - N/A   Clear
7:56 AM 53.1 °F - 32.0 °F 45% 30.19 in 10.0 mi South 11.5 mph 20.7 mph N/A   Clear
8:56 AM 55.9 °F - 34.0 °F 44% 30.18 in 10.0 mi South 8.1 mph - N/A   Clear
9:56 AM 57.0 °F - 35.1 °F 44% 30.18 in 10.0 mi South 8.1 mph - N/A   Clear
10:56 AM 63.0 °F - 36.0 °F 37% 30.17 in 10.0 mi South 15.0 mph 20.7 mph N/A   Clear
11:56 AM 64.9 °F - 37.9 °F 37% 30.17 in 10.0 mi South 16.1 mph 23.0 mph N/A   Clear
12:56 PM 69.1 °F - 39.0 °F 33% 30.14 in 10.0 mi South 13.8 mph 28.8 mph N/A   Clear
1:56 PM 71.1 °F - 41.0 °F 34% 30.12 in 10.0 mi SSW 15.0 mph 28.8 mph N/A   Clear
2:56 PM 72.0 °F - 42.1 °F 34% 30.11 in 10.0 mi SW 18.4 mph 32.2 mph N/A   Scattered Clouds
3:56 PM 70.0 °F - 44.1 °F 39% 30.09 in 10.0 mi SSW 20.7 mph 31.1 mph N/A   Overcast
4:56 PM 70.0 °F - 44.1 °F 39% 30.11 in 10.0 mi SW 16.1 mph 29.9 mph N/A   Overcast
5:56 PM 70.0 °F - 43.0 °F 38% 30.11 in 10.0 mi SW 12.7 mph - N/A   Clear
6:56 PM 66.9 °F - 42.1 °F 40% 30.12 in 10.0 mi SSW 17.3 mph 25.3 mph N/A   Partly Cloudy
7:56 PM 64.0 °F - 42.1 °F 45% 30.13 in 10.0 mi SSW 12.7 mph 21.9 mph N/A   Partly Cloudy
8:56 PM 63.0 °F - 43.0 °F 48% 30.16 in 10.0 mi SSW 12.7 mph - N/A   Clear
9:56 PM 60.1 °F - 44.1 °F 55% 30.19 in 10.0 mi South 9.2 mph - N/A   Clear
10:56 PM 57.9 °F - 45.0 °F 62% 30.19 in 10.0 mi SSW 10.4 mph 17.3 mph N/A   Clear
11:56 PM 55.9 °F - 45.0 °F 67% 30.20 in 10.0 mi SSW 9.2 mph - N/A   Clear